Regional Weather Roundup
Issued by NWS

Home | Current Version | Previous Version | Text Only | Print | Product List | Glossary Off
Versions: 1 2 3 4 5 6 7 8 9 10 11 12 13 14 15 16 17 18 19 20 21 22 23 24 25 26 27 28 29 30 31 32 33 34 35 36 37 38 39 40 41 42 43 44 45 46 47 48 49 50

000
ASUS43 KDTX 251410
RWRMI
MICHIGAN HOURLY REGIONAL WEATHER ROUNDUP
NATIONAL WEATHER SERVICE DETROIT/PONTIAC MI
1000 AM EDT TUE APR 25 2017

NOTE: "FAIR" INDICATES FEW OR NO CLOUDS BELOW 12,000 FEET WITH NO
SIGNIFICANT WEATHER AND/OR OBSTRUCTION TO VISIBILITY.

MIZ047>049-052>055-059>063-066>070-074>076-081>083-251500-
SOUTHEAST LOWER MICHIGAN

CITY           SKY/WX    TMP DP  RH WIND       PRES   REMARKS
ADRIAN         CLOUDY    56  50  80 SE9       29.86R
ALMA           CLOUDY    55  47  72 E9G16     29.83F
ANN ARBOR      CLOUDY    55  47  74 SE9       29.86R
BAD AXE        CLOUDY    48  43  84 SE7       29.90S
CARO           CLOUDY    51  43  75 E8        29.86F
DETROIT CITY   CLOUDY    54  49  83 SE12      29.88F
DETROIT        CLOUDY    57  48  72 SE10      29.87F
FLINT          CLOUDY    56  45  66 SE9       29.85F
GROSSE ILE     CLOUDY    55  48  76 SE8       29.87S
HILLSDALE      CLOUDY    55  46  71 SE10      29.83S
HOWELL         CLOUDY    57  45  64 SE12      29.85S

CITY           SKY/WX    TMP DP  RH WIND       PRES   REMARKS
JACKSON        PTSUNNY   57  47  69 S13       29.83F
LAMBERTVILLE   CLOUDY    56  49  77 SE6       29.85S
LANSING        MOSUNNY   60  47  61 S14       29.83F
LAPEER         CLOUDY    53  45  73 SE12G17   29.87S
MASON          CLOUDY    57  49  73 SE10G17   29.83S
MONROE         CLOUDY    55  49  81 SE10G18   29.86S
MT. CLEMENS    MOSUNNY   52  52 100 SE10      29.88R
PONTIAC        CLOUDY    55  46  71 SE10G20   29.85F
PORT HOPE        N/A     48  44  86 SE16G25   29.89F
PORT HURON     CLOUDY    52  46  82 SE9       29.91R
TRI CITIES     CLOUDY    53  44  71 E10       29.86F
MIDLAND        CLOUDY    55  42  61 E7        29.84F
TROY           CLOUDY    55  45  67 SE9       29.89F
SAGINAW HB     CLOUDY    52  43  71 SE8       29.85F
$$
MIZ043>046-050>051-056>058-064>065-071>073-077>080-251500-
SOUTHWEST LOWER MICHIGAN

CITY           SKY/WX    TMP DP  RH WIND       PRES   REMARKS
BATTLE CREEK   MOSUNNY   59  50  72 S12       29.81F
BENTON HARBOR    N/A     63  51  65 S15       29.76S
BIG RAPIDS     SUNNY     57  45  65 SE15      29.80F
COLDWATER      SUNNY     59  50  72 SE12G17   29.82S
FREMONT        FAIR      59  45  60 SE10      29.78F
HOLLAND        SUNNY     62  50  64 SE13      29.77F
GRAND RAPIDS   PTSUNNY   60  51  72 SE10      29.79F
IONIA          PTSUNNY   58  49  71 SE10      29.80F
KALAMAZOO      CLOUDY    61  49  64 SE8       29.80F
LUDINGTON      CLOUDY    61  49  65 SE16      29.75F
MARSHALL       MOSUNNY   60  49  68 SE9       29.81F
MOUNT PLEASANT MOSUNNY   56  44  63 SE12      29.83F
MUSKEGON       PTSUNNY   62  49  62 SE10      29.77S
SOUTH HAVEN    SUNNY     63  51  66 S10G17    29.76F
$$
MIZ016>042-251500-
NORTHERN LOWER MICHIGAN

CITY           SKY/WX    TMP DP  RH WIND       PRES   REMARKS
ALPENA         CLOUDY    49  40  71 SE10G18   29.89F
BEAVER ISLAND  MOSUNNY   50  40  68 SE12      29.79S
BELLAIRE       SUNNY     59  42  53 S9        29.80S
CADILLAC       SUNNY     55  43  65 SE9       29.81S
CHARLEVOIX     MOSUNNY   60  44  55 SE9       29.81F
FRANKFORT      MOSUNNY   62  46  55 SE12G18   29.73F
GAYLORD        MOSUNNY   55  40  56 S16       29.82F
GRAYLING       SUNNY     56  43  61 SE12      29.82F
HARBOR SPRINGS MOSUNNY   58  42  54 E5        29.80F
HOUGHTON LAKE  PTSUNNY   56  43  61 S8        29.83F
OSCODA         CLOUDY    49  39  66 S5        29.89F
PELLSTON       MOSUNNY   55  38  52 SE13      29.82F
ROGERS CITY    CLOUDY    51  39  64 SE10      29.88F
TRAVERSE CITY  PTSUNNY   60  43  53 S12       29.78F
$$
MIZ007>008-015-251500-
EASTERN UPPER MICHIGAN

CITY           SKY/WX    TMP DP  RH WIND       PRES   REMARKS
KINROSS        MOSUNNY   46  35  65 SE20      29.85S
MACKINAC ISLAN PTSUNNY   43  37  79 E13G18    29.82F
NEWBERRY       MOSUNNY   52  40  65 SE10G17   29.79F
S. S. MARIE    MOSUNNY   47  34  60 SE13G20   29.86R
MUNISING         N/A     56  40  55 S8G29     29.73F
$$
MIZ004>006-011>014-085-251500-
CENTRAL UPPER MICHIGAN

CITY           SKY/WX    TMP DP  RH WIND       PRES   REMARKS
MANISTIQUE     MOSUNNY   48  40  74 E8        29.78S
ESCANABA       CLOUDY    51  42  71 SE10      29.75F HAZE
MENOMINEE      PTSUNNY   53  44  71 S14       29.72F
SAWYER-GWINN   SUNNY     52  41  66 S14       29.72F
$$
MIZ001>003-009>011-084-251500-
WESTERN UPPER MICHIGAN

CITY           SKY/WX    TMP DP  RH WIND       PRES   REMARKS
IRON MOUNTAIN  MOSUNNY   53  39  59 SE15      29.69S
HOUGHTON       CLOUDY    48  36  63 E9        29.65S
COPPER HARBOR    N/A     47  37  68 SW10G22   29.65F
IRONWOOD       CLOUDY    57  35  43 S12G18    29.58F
$$

ABBREVIATIONS USED IN REMARKS
   TC - TEMPERATURE IN CELSIUS
  WCI - WIND CHILL INDEX
   HX - HEAT INDEX
  VSB - VISIBILITY





USA.gov is the U.S. government's official web portal to all federal, state and local government web resources and services.